TimeCST,TemperatureF,Dew PointF,Humidity,Sea Level PressureIn,VisibilityMPH,Wind Direction,Wind SpeedMPH,Gust SpeedMPH,PrecipitationIn,Events,Conditions,WindDirDegrees,DateUTC
12:15 AM,25.3,23.9,94,30.37,7.0,Calm,Calm,-,N/A,,Clear,0,2013-01-04 06:15:00
12:35 AM,25.0,23.5,94,30.37,7.0,Calm,Calm,-,N/A,,Clear,0,2013-01-04 06:35:00
12:55 AM,24.3,23.0,95,30.37,7.0,Calm,Calm,-,N/A,,Clear,0,2013-01-04 06:55:00
1:15 AM,24.4,23.4,96,30.37,10.0,Calm,Calm,-,N/A,,Clear,0,2013-01-04 07:15:00
1:35 AM,25.3,23.2,91,30.38,10.0,Calm,Calm,-,N/A,,Clear,0,2013-01-04 07:35:00
1:55 AM,25.3,22.8,90,30.38,10.0,Calm,Calm,-,N/A,,Clear,0,2013-01-04 07:55:00
2:35 AM,26.6,23.2,87,30.38,10.0,Calm,Calm,-,N/A,,Clear,0,2013-01-04 08:35:00
2:55 AM,25.3,22.8,90,30.38,10.0,Calm,Calm,-,N/A,,Clear,0,2013-01-04 08:55:00
3:15 AM,25.0,22.6,91,30.38,10.0,Calm,Calm,-,N/A,,Clear,0,2013-01-04 09:15:00
5:55 AM,24.6,22.5,91,30.41,10.0,Calm,Calm,-,N/A,,Clear,0,2013-01-04 11:55:00
6:15 AM,24.1,22.5,94,30.41,7.0,Calm,Calm,-,N/A,,Clear,0,2013-01-04 12:15:00
6:35 AM,23.5,22.1,94,30.41,7.0,Calm,Calm,-,N/A,,Clear,0,2013-01-04 12:35:00
6:55 AM,24.1,22.5,94,30.41,10.0,Calm,Calm,-,N/A,,Clear,0,2013-01-04 12:55:00
7:15 AM,24.3,22.5,93,30.42,7.0,NE,3.5,-,N/A,,Clear,40,2013-01-04 13:15:00
7:35 AM,25.2,23.0,91,30.42,10.0,Calm,Calm,-,N/A,,Clear,0,2013-01-04 13:35:00
7:55 AM,27.5,24.3,88,30.43,10.0,Calm,Calm,-,N/A,,Clear,0,2013-01-04 13:55:00
8:15 AM,30.0,25.5,83,30.43,10.0,NNE,3.5,-,N/A,,Clear,20,2013-01-04 14:15:00
8:35 AM,31.6,25.5,78,30.43,10.0,NNE,3.5,-,N/A,,Clear,20,2013-01-04 14:35:00
8:55 AM,33.1,25.2,73,30.44,10.0,NNE,3.5,-,N/A,,Clear,20,2013-01-04 14:55:00
9:15 AM,35.1,25.3,68,30.44,10.0,NNE,3.5,-,N/A,,Clear,30,2013-01-04 15:15:00
9:35 AM,37.0,25.7,64,30.45,10.0,NNW,4.6,-,N/A,,Clear,340,2013-01-04 15:35:00
9:55 AM,38.7,24.6,57,30.45,10.0,NNE,3.5,-,N/A,,Clear,30,2013-01-04 15:55:00
10:15 AM,39.9,23.7,52,30.45,10.0,NE,3.5,-,N/A,,Clear,50,2013-01-04 16:15:00
10:35 AM,41.4,22.6,47,30.45,10.0,NNW,4.6,-,N/A,,Clear,340,2013-01-04 16:35:00
10:55 AM,41.9,23.5,48,30.46,10.0,NW,8.1,-,N/A,,Clear,320,2013-01-04 16:55:00
11:15 AM,41.7,24.8,51,30.45,10.0,NW,8.1,-,N/A,,Clear,320,2013-01-04 17:15:00
11:35 AM,42.8,23.7,47,30.44,10.0,North,6.9,-,N/A,,Clear,350,2013-01-04 17:35:00
11:55 AM,43.3,22.8,44,30.43,10.0,North,6.9,-,N/A,,Clear,360,2013-01-04 17:55:00
12:15 PM,43.7,22.8,44,30.42,10.0,North,5.8,-,N/A,,Clear,360,2013-01-04 18:15:00
12:35 PM,44.1,21.6,41,30.40,10.0,NNE,8.1,-,N/A,,Clear,20,2013-01-04 18:35:00
12:55 PM,44.8,21.4,40,30.40,10.0,Calm,Calm,-,N/A,,Clear,0,2013-01-04 18:55:00
1:15 PM,45.5,21.6,39,30.39,10.0,NW,5.8,-,N/A,,Clear,320,2013-01-04 19:15:00
1:35 PM,46.0,22.3,39,30.38,10.0,NNW,5.8,-,N/A,,Clear,340,2013-01-04 19:35:00
1:55 PM,45.7,21.4,38,30.39,10.0,NNW,8.1,-,N/A,,Clear,330,2013-01-04 19:55:00
2:15 PM,46.4,21.0,37,30.38,10.0,NW,4.6,-,N/A,,Clear,310,2013-01-04 20:15:00
2:35 PM,46.4,21.2,37,30.38,10.0,NNE,6.9,-,N/A,,Clear,20,2013-01-04 20:35:00
2:55 PM,45.9,21.6,38,30.38,10.0,North,6.9,-,N/A,,Clear,360,2013-01-04 20:55:00
3:15 PM,45.7,21.4,38,30.38,10.0,North,8.1,-,N/A,,Clear,10,2013-01-04 21:15:00
3:35 PM,45.1,21.2,39,30.39,10.0,North,5.8,-,N/A,,Clear,350,2013-01-04 21:35:00
3:55 PM,44.6,21.7,40,30.39,10.0,North,3.5,-,N/A,,Clear,350,2013-01-04 21:55:00
4:15 PM,43.9,21.6,41,30.40,10.0,North,3.5,-,N/A,,Clear,10,2013-01-04 22:15:00
4:35 PM,42.1,22.1,45,30.39,10.0,Calm,Calm,-,N/A,,Clear,0,2013-01-04 22:35:00
4:55 PM,40.1,22.3,49,30.40,10.0,Calm,Calm,-,N/A,,Clear,0,2013-01-04 22:55:00
5:35 PM,33.3,24.8,71,30.40,10.0,Calm,Calm,-,N/A,,Clear,0,2013-01-04 23:35:00
5:55 PM,32.4,24.8,74,30.41,10.0,Calm,Calm,-,N/A,,Clear,0,2013-01-04 23:55:00
6:15 PM,31.5,24.1,74,30.42,10.0,Calm,Calm,-,N/A,,Clear,0,2013-01-05 00:15:00
6:35 PM,30.9,25.0,79,30.41,10.0,Calm,Calm,-,N/A,,Clear,0,2013-01-05 00:35:00
6:55 PM,29.1,24.6,83,30.42,10.0,Calm,Calm,-,N/A,,Clear,0,2013-01-05 00:55:00
7:15 PM,28.9,24.6,84,30.41,10.0,Calm,Calm,-,N/A,,Clear,0,2013-01-05 01:15:00
7:35 PM,28.0,24.6,87,30.41,10.0,Calm,Calm,-,N/A,,Clear,0,2013-01-05 01:35:00
7:55 PM,27.9,24.4,87,30.40,10.0,Calm,Calm,-,N/A,,Clear,0,2013-01-05 01:55:00
8:15 PM,27.3,24.1,88,30.40,10.0,Calm,Calm,-,N/A,,Clear,0,2013-01-05 02:15:00
8:35 PM,26.8,23.7,88,30.41,10.0,Calm,Calm,-,N/A,,Clear,0,2013-01-05 02:35:00
9:15 PM,26.4,24.1,91,30.41,10.0,Calm,Calm,-,N/A,,Clear,0,2013-01-05 03:15:00
9:35 PM,26.2,23.7,90,30.41,10.0,Calm,Calm,-,N/A,,Clear,0,2013-01-05 03:35:00
9:55 PM,26.1,23.9,92,30.41,10.0,Calm,Calm,-,N/A,,Clear,0,2013-01-05 03:55:00
10:15 PM,26.4,23.7,90,30.40,10.0,Calm,Calm,-,N/A,,Clear,0,2013-01-05 04:15:00
10:35 PM,25.7,23.2,90,30.40,10.0,Calm,Calm,-,N/A,,Clear,0,2013-01-05 04:35:00
10:55 PM,25.5,23.7,93,30.40,10.0,Calm,Calm,-,N/A,,Clear,0,2013-01-05 04:55:00
11:15 PM,25.9,23.9,92,30.39,10.0,Calm,Calm,-,N/A,,Clear,0,2013-01-05 05:15:00
11:35 PM,25.7,23.5,92,30.39,10.0,Calm,Calm,-,N/A,,Clear,0,2013-01-05 05:35:00
11:55 PM,25.9,24.1,93,30.39,10.0,Calm,Calm,-,N/A,,Clear,0,2013-01-05 05:55:00